WetterOnline ( http://www.wetteronline.de )

Wetter aktuell Hittbergen

Aktuelles Wetter: Boizenburg (46m)

6-stündlich | Neueste Meldungen
Ortszeit Temperatur Wetter
Sa, 23.03. 1:00 8.0° C leicht bewölkt
Fr, 22.03. 19:00 12.4° C leicht bewölkt
Fr, 22.03. 13:00 11.4° C bedeckt
Fr, 22.03. 7:00 8.3° C bedeckt
Fr, 22.03. 1:00 9.4° C bedeckt
Do, 21.03. 19:00 11.2° C bedeckt
Do, 21.03. 13:00 10.3° C bedeckt
Do, 21.03. 7:00 9.3° C bedeckt
Ortszeit Temperatur Wetter
Sa, 23.03. 4:00 5.5° C Nebel
Sa, 23.03. 3:40 6.2° C Nebel
Sa, 23.03. 3:30 6.7° C Nebel
Sa, 23.03. 3:20 6.7° C Nebel
Sa, 23.03. 3:10 6.6° C Nebel
Sa, 23.03. 3:00 6.5° C Nebel
Sa, 23.03. 2:50 6.5° C Nebel
Sa, 23.03. 2:30 6.7° C Nebel
Sa, 23.03. 2:00 7.5° C wolkenlos
Sa, 23.03. 1:30 7.8° C fast wolkenlos
Sa, 23.03. 1:00 8.0° C leicht bewölkt
Ortszeit Relative Feuchte Sichtweite
Sa, 23.03. 1:00 97% 2.0 km
Fr, 22.03. 19:00 81% 4.3 km
Fr, 22.03. 13:00 80% 5.0 km
Fr, 22.03. 7:00 93% 4.0 km
Fr, 22.03. 1:00 89% 4.9 km
Do, 21.03. 19:00 79% 7 km
Do, 21.03. 13:00 86% 7 km
Do, 21.03. 7:00 89% 4.9 km
Ortszeit Relative Feuchte Sichtweite
Sa, 23.03. 4:00 100% <100 m
Sa, 23.03. 3:40 99% -
Sa, 23.03. 3:30 100% 0.9 km
Sa, 23.03. 3:20 100% -
Sa, 23.03. 3:10 100% -
Sa, 23.03. 3:00 100% 0.9 km
Sa, 23.03. 2:50 100% -
Sa, 23.03. 2:30 100% 0.9 km
Sa, 23.03. 2:00 99% 1.7 km
Sa, 23.03. 1:30 98% 1.9 km
Sa, 23.03. 1:00 97% 2.0 km
Ortszeit Niederschlagsmenge Niederschlagsart
Sa, 23.03. 1:00 0.0 l/m2 in 6 Std. -
Fr, 22.03. 19:00 0.0 l/m2 in 12 Std. -
Fr, 22.03. 13:00 0.0 l/m2 in 6 Std. -
Fr, 22.03. 7:00 0.0 l/m2 in 12 Std. -
Fr, 22.03. 1:00 0.0 l/m2 in 6 Std. -
Do, 21.03. 19:00 0.0 l/m2 in 12 Std. -
Do, 21.03. 13:00 0.0 l/m2 in 6 Std. -
Do, 21.03. 7:00 0.0 l/m2 in 12 Std. -
Ortszeit Niederschlagsmenge Niederschlagsart
Sa, 23.03. 4:00 0.0 l/m2 in 1 Std. -
Sa, 23.03. 3:40 keine Meldung -
Sa, 23.03. 3:30 0.0 l/m2 in 1 Std. -
Sa, 23.03. 3:20 keine Meldung -
Sa, 23.03. 3:10 keine Meldung -
Sa, 23.03. 3:00 0.0 l/m2 in 1 Std. -
Sa, 23.03. 2:50 keine Meldung -
Sa, 23.03. 2:30 0.0 l/m2 in 1 Std. -
Sa, 23.03. 2:00 0.0 l/m2 in 1 Std. -
Sa, 23.03. 1:30 0.0 l/m2 in 1 Std. -
Sa, 23.03. 1:00 0.0 l/m2 in 1 Std. -
Ortszeit Stärke Spitze Richtung
km/h Bft. km/h Grad Sektor
Sa, 23.03. 1:00 14 3 25 130° SO
Fr, 22.03. 19:00 14 3 22 120° SO
Fr, 22.03. 13:00 11 2 18 150° SO
Fr, 22.03. 7:00 4 1 14 40° NO
Fr, 22.03. 1:00 6 1 26 290° W
Do, 21.03. 19:00 11 2 28 270° W
Do, 21.03. 13:00 17 3 33 250° W
Do, 21.03. 7:00 15 3 22 230° SW
Ortszeit Stärke Spitze Richtung
km/h Bft. km/h Grad Sektor
Sa, 23.03. 4:00 7 2 11 300° NW
Sa, 23.03. 3:40 7 2 - 270° W
Sa, 23.03. 3:30 6 1 9 180° S
Sa, 23.03. 3:20 6 1 - 180° S
Sa, 23.03. 3:10 6 1 - 150° SO
Sa, 23.03. 3:00 7 2 14 160° S
Sa, 23.03. 2:50 7 2 - 160° S
Sa, 23.03. 2:30 7 2 14 140° SO
Sa, 23.03. 2:00 11 2 18 130° SO
Sa, 23.03. 1:30 13 3 19 130° SO
Sa, 23.03. 1:00 14 3 22 130° SO
Ortszeit Untergrenze Bedeckung Gattung
total tief tief mittel hoch
Sa, 23.03. 1:00 10500 m 4/8 0/8 - - -
Fr, 22.03. 19:00 12000 m 4/8 0/8 - - -
Fr, 22.03. 13:00 390 m 8/8 8/8 - - -
Fr, 22.03. 7:00 180 m 8/8 8/8 - - -
Fr, 22.03. 1:00 330 m 8/8 8/8 - - -
Do, 21.03. 19:00 540 m 8/8 8/8 - - -
Do, 21.03. 13:00 330 m 8/8 8/8 - - -
Do, 21.03. 7:00 510 m 8/8 8/8 - - -
Ortszeit Bedeckungsgrad in Achtel und Wolkenuntergrenze
Sa, 23.03. 4:00 4(<30m) 8(10500m) 8(12000m)
Sa, 23.03. 3:40 1(<30m) 8(10500m) 8(10500m)
Sa, 23.03. 3:30 8(10500m) 8(10500m)
Sa, 23.03. 3:20 8(10500m) 8(10500m)
Sa, 23.03. 3:10 7(10500m)
Sa, 23.03. 3:00 3(10500m)
Sa, 23.03. 2:50 3(10500m)
Sa, 23.03. 2:30 keine Wolken
Sa, 23.03. 2:00 keine Wolken
Sa, 23.03. 1:30 1(10500m)
Sa, 23.03. 1:00 4(10500m)
Ortszeit Luftdruck NN (hPa) Tendenz (hPa in 3 Std.)
Sa, 23.03. 1:00 1026 - 1,7
Fr, 22.03. 19:00 1028 - 1,7
Fr, 22.03. 13:00 1032 - 1,6
Fr, 22.03. 7:00 1034 + 0,8
Fr, 22.03. 1:00 1034 - 0,1
Do, 21.03. 19:00 1033 - 0,1
Do, 21.03. 13:00 1034 + 0,3
Do, 21.03. 7:00 1033 0,0
Ortszeit Luftdruck NN (hPa) Tendenz (hPa in 3 Std.)
Sa, 23.03. 4:00 1025 - 0,7
Sa, 23.03. 3:40 1025 keine Meldung
Sa, 23.03. 3:30 1025 - 1,3
Sa, 23.03. 3:20 1025 keine Meldung
Sa, 23.03. 3:10 1025 keine Meldung
Sa, 23.03. 3:00 1025 - 1,5
Sa, 23.03. 2:50 1025 keine Meldung
Sa, 23.03. 2:30 1025 - 1,8
Sa, 23.03. 2:00 1025 - 2,0
Sa, 23.03. 1:30 1025 - 1,8
Sa, 23.03. 1:00 1026 - 1,7
Ortszeit Schneehöhe (cm)
Sa, 23.03. 1:00 0
Fr, 22.03. 19:00 0
Fr, 22.03. 13:00 0
Fr, 22.03. 7:00 0
Fr, 22.03. 1:00 0
Do, 21.03. 19:00 0
Do, 21.03. 13:00 0
Do, 21.03. 7:00 0
Ortszeit Schneehöhe (cm)
Sa, 23.03. 4:00 0
Sa, 23.03. 3:40 0
Sa, 23.03. 3:30 0
Sa, 23.03. 3:20 0
Sa, 23.03. 3:10 0
Sa, 23.03. 3:00 0
Sa, 23.03. 2:50 0
Sa, 23.03. 2:30 0
Sa, 23.03. 2:00 0
Sa, 23.03. 1:30 0
Sa, 23.03. 1:00 0
Link zu dieser Seite / Seite empfehlen

Das Wetter in ...